When you browse on this site, cookies collect data to enhance your experience and personalize the content and advertising you see.
Visit our Privacy Policy to learn more. By continuing to use the site, you agree to this use of cookies and data.
  • Em Portugal
  • Lista de países
  • Para 7 dias
  • Temperatura da água
  • Mapas de satélite
  • Mapa do tempo
  • Widgets de tempo
  • user-avatar
    Iniciar Sessão

    Previsão horária em Potosi

    Hoje, 21 Abril, Domingo

    Tempo Temperatura Precipitação Vento Pressão Humidade
    00:00 +9°C° 0.1 mm 2 m/s 468 mmHg 72%
    01:00 +10°C° 0.1 mm 1 m/s 468 mmHg 74%
    02:00 +9°C° 0.1 mm 1 m/s 467 mmHg 76%
    03:00 +9°C° 0 mm 1 m/s 467 mmHg 78%
    04:00 +8°C° 0 mm 1 m/s 467 mmHg 79%
    05:00 +8°C° 0 mm 1 m/s 466 mmHg 81%
    06:00 +8°C° 0 mm 1 m/s 467 mmHg 76%
    07:00 +9°C° 0 mm 1 m/s 468 mmHg 71%
    08:00 +10°C° 0 mm 1 m/s 469 mmHg 65%
    09:00 +12°C° 0 mm 1 m/s 470 mmHg 53%
    10:00 +13°C° 0 mm 1 m/s 471 mmHg 40%
    11:00 +15°C° 0 mm 1 m/s 472 mmHg 28%
    12:00 +16°C° 0 mm 1 m/s 471 mmHg 24%
    13:00 +16°C° 0 mm 1 m/s 471 mmHg 21%
    14:00 +17°C° 0 mm 2 m/s 471 mmHg 17%
    15:00 +17°C° 0.2 mm 2 m/s 471 mmHg 21%
    16:00 +16°C° 0.2 mm 3 m/s 470 mmHg 25%
    17:00 +16°C° 0.2 mm 3 m/s 470 mmHg 28%
    18:00 +14°C° 0.4 mm 2 m/s 469 mmHg 38%
    19:00 +13°C° 0.4 mm 2 m/s 468 mmHg 47%
    20:00 +11°C° 0.4 mm 1 m/s 468 mmHg 57%
    21:00 +9°C° 0 mm 2 m/s 468 mmHg 66%
    22:00 +9°C° 0 mm 2 m/s 468 mmHg 75%
    23:00 +8°C° 0 mm 2 m/s 467 mmHg 84%

    Amanhã, 22 Abril, Segunda-feira

    Tempo Temperatura Precipitação Vento Pressão Humidade
    00:00 +8°C° 0 mm 2 m/s 467 mmHg 84%
    01:00 +7°C° 0 mm 2 m/s 467 mmHg 85%
    02:00 +7°C° 0 mm 2 m/s 467 mmHg 86%
    03:00 +7°C° 0 mm 2 m/s 467 mmHg 84%
    04:00 +8°C° 0 mm 1 m/s 466 mmHg 83%
    05:00 +8°C° 0 mm 1 m/s 466 mmHg 82%
    06:00 +8°C° 0 mm 1 m/s 467 mmHg 79%
    07:00 +7°C° 0 mm 2 m/s 467 mmHg 75%
    08:00 +8°C° 0 mm 2 m/s 468 mmHg 72%
    09:00 +9°C° 0 mm 2 m/s 469 mmHg 60%
    10:00 +12°C° 0 mm 2 m/s 470 mmHg 47%
    11:00 +13°C° 0 mm 2 m/s 471 mmHg 34%
    12:00 +14°C° 0 mm 2 m/s 470 mmHg 32%
    13:00 +15°C° 0 mm 2 m/s 470 mmHg 30%
    14:00 +16°C° 0 mm 3 m/s 470 mmHg 27%
    15:00 +14°C° 0.2 mm 3 m/s 469 mmHg 34%
    16:00 +13°C° 0.2 mm 3 m/s 469 mmHg 40%
    17:00 +13°C° 0.2 mm 3 m/s 468 mmHg 46%
    18:00 +11°C° 0.3 mm 3 m/s 468 mmHg 57%
    19:00 +10°C° 0.3 mm 3 m/s 467 mmHg 68%
    20:00 +9°C° 0.3 mm 3 m/s 467 mmHg 79%
    21:00 +9°C° 0 mm 3 m/s 467 mmHg 79%
    22:00 +8°C° 0 mm 3 m/s 467 mmHg 80%
    23:00 +8°C° 0 mm 3 m/s 468 mmHg 81%

    Depois de amanhã, 23 Abril, Terça-feira

    Tempo Temperatura Precipitação Vento Pressão Humidade
    00:00 +8°C° 0 mm 3 m/s 467 mmHg 80%
    01:00 +7°C° 0 mm 2 m/s 467 mmHg 78%
    02:00 +7°C° 0 mm 2 m/s 467 mmHg 77%
    03:00 +7°C° 0 mm 2 m/s 467 mmHg 79%
    04:00 +7°C° 0 mm 2 m/s 466 mmHg 80%
    05:00 +6°C° 0 mm 2 m/s 466 mmHg 82%
    06:00 +6°C° 0 mm 2 m/s 467 mmHg 81%
    07:00 +7°C° 0 mm 2 m/s 467 mmHg 79%
    08:00 +7°C° 0 mm 2 m/s 468 mmHg 78%
    09:00 +8°C° 0 mm 2 m/s 468 mmHg 71%
    10:00 +9°C° 0 mm 3 m/s 469 mmHg 65%
    11:00 +10°C° 0 mm 3 m/s 470 mmHg 58%
    12:00 +11°C° 0.3 mm 3 m/s 469 mmHg 55%
    13:00 +12°C° 0.3 mm 3 m/s 469 mmHg 52%
    14:00 +13°C° 0.3 mm 4 m/s 469 mmHg 49%
    15:00 +12°C° 0.8 mm 4 m/s 468 mmHg 54%
    16:00 +11°C° 0.8 mm 4 m/s 468 mmHg 60%
    17:00 +10°C° 0.8 mm 4 m/s 467 mmHg 65%
    18:00 +8°C° 0.5 mm 4 m/s 467 mmHg 71%
    19:00 +8°C° 0.5 mm 4 m/s 467 mmHg 76%
    20:00 +7°C° 0.5 mm 4 m/s 466 mmHg 81%
    21:00 +6°C° 0.1 mm 4 m/s 467 mmHg 82%
    22:00 +6°C° 0.1 mm 4 m/s 467 mmHg 83%
    23:00 +7°C° 0.1 mm 3 m/s 467 mmHg 84%

    24 Abril, Quarta-feira

    Tempo Temperatura Precipitação Vento Pressão Humidade
    00:00 +7°C° 0.1 mm 3 m/s 467 mmHg 84%
    01:00 +7°C° 0.1 mm 3 m/s 467 mmHg 84%
    02:00 +7°C° 0.1 mm 3 m/s 467 mmHg 83%
    03:00 +5°C° 0 mm 3 m/s 467 mmHg 84%
    04:00 +5°C° 0 mm 3 m/s 467 mmHg 85%
    05:00 +5°C° 0 mm 3 m/s 466 mmHg 86%
    06:00 +5°C° 0 mm 3 m/s 467 mmHg 85%
    07:00 +7°C° 0 mm 3 m/s 468 mmHg 83%
    08:00 +7°C° 0 mm 3 m/s 468 mmHg 82%
    09:00 +8°C° 0.1 mm 3 m/s 469 mmHg 77%
    10:00 +7°C° 0.1 mm 4 m/s 469 mmHg 72%
    11:00 +8°C° 0.1 mm 4 m/s 470 mmHg 67%
    12:00 +9°C° 0.5 mm 5 m/s 469 mmHg 63%
    13:00 +10°C° 0.5 mm 5 m/s 469 mmHg 59%
    14:00 +11°C° 0.5 mm 6 m/s 469 mmHg 54%
    15:00 +12°C° 0.9 mm 5 m/s 469 mmHg 55%
    16:00 +12°C° 0.9 mm 5 m/s 469 mmHg 56%
    17:00 +10°C° 0.9 mm 5 m/s 468 mmHg 56%
    18:00 +10°C° 0.8 mm 4 m/s 468 mmHg 65%
    19:00 +8°C° 0.8 mm 4 m/s 468 mmHg 73%
    20:00 +8°C° 0.8 mm 3 m/s 467 mmHg 81%
    21:00 +8°C° 0.9 mm 3 m/s 467 mmHg 83%
    22:00 +7°C° 0.9 mm 3 m/s 468 mmHg 86%
    23:00 +7°C° 0.9 mm 3 m/s 468 mmHg 88%

    25 Abril, Quinta-feira

    Tempo Temperatura Precipitação Vento Pressão Humidade
    00:00 +7°C° 0.5 mm 3 m/s 468 mmHg 88%
    01:00 +7°C° 0.5 mm 3 m/s 467 mmHg 88%
    02:00 +7°C° 0.5 mm 3 m/s 467 mmHg 89%
    03:00 +5°C° 0.6 mm 3 m/s 467 mmHg 89%
    04:00 +5°C° 0.6 mm 3 m/s 467 mmHg 89%
    05:00 +6°C° 0.6 mm 2 m/s 467 mmHg 90%
    06:00 +6°C° 0.2 mm 2 m/s 468 mmHg 88%
    07:00 +6°C° 0.2 mm 2 m/s 468 mmHg 86%
    08:00 +7°C° 0.2 mm 3 m/s 469 mmHg 84%
    09:00 +7°C° 0.2 mm 3 m/s 469 mmHg 79%
    10:00 +8°C° 0.2 mm 3 m/s 470 mmHg 74%
    11:00 +9°C° 0.2 mm 3 m/s 470 mmHg 69%
    12:00 +10°C° 0.6 mm 3 m/s 470 mmHg 66%
    13:00 +10°C° 0.6 mm 4 m/s 469 mmHg 63%
    14:00 +11°C° 0.6 mm 4 m/s 469 mmHg 61%
    15:00 +11°C° 0.9 mm 4 m/s 469 mmHg 61%
    16:00 +11°C° 0.9 mm 4 m/s 468 mmHg 62%
    17:00 +10°C° 0.9 mm 4 m/s 468 mmHg 62%
    18:00 +8°C° 0.7 mm 4 m/s 468 mmHg 69%
    19:00 +9°C° 0.7 mm 3 m/s 468 mmHg 75%
    20:00 +8°C° 0.7 mm 3 m/s 467 mmHg 82%
    21:00 +7°C° 0.4 mm 3 m/s 468 mmHg 83%
    22:00 +7°C° 0.4 mm 3 m/s 468 mmHg 85%
    23:00 +7°C° 0.4 mm 3 m/s 468 mmHg 86%

    26 Abril, Sexta-feira

    Tempo Temperatura Precipitação Vento Pressão Humidade
    00:00 +7°C° 0.5 mm 3 m/s 468 mmHg 85%
    01:00 +7°C° 0.5 mm 3 m/s 467 mmHg 85%
    02:00 +7°C° 0.5 mm 3 m/s 467 mmHg 84%
    03:00 +7°C° 0.4 mm 2 m/s 467 mmHg 83%
    04:00 +7°C° 0.4 mm 2 m/s 467 mmHg 82%
    05:00 +8°C° 0.4 mm 1 m/s 467 mmHg 82%
    06:00 +8°C° 0.1 mm 1 m/s 468 mmHg 80%
    07:00 +8°C° 0.1 mm 1 m/s 468 mmHg 78%
    08:00 +8°C° 0.1 mm 1 m/s 469 mmHg 77%
    09:00 +9°C° 0 mm 2 m/s 469 mmHg 65%
    10:00 +10°C° 0 mm 2 m/s 470 mmHg 54%
    11:00 +12°C° 0 mm 3 m/s 471 mmHg 42%
    12:00 +13°C° 0 mm 3 m/s 471 mmHg 37%
    13:00 +14°C° 0 mm 4 m/s 471 mmHg 31%
    14:00 +15°C° 0 mm 4 m/s 471 mmHg 26%
    15:00 +14°C° 0 mm 4 m/s 470 mmHg 28%
    16:00 +14°C° 0 mm 4 m/s 470 mmHg 30%
    17:00 +13°C° 0 mm 3 m/s 469 mmHg 33%
    18:00 +12°C° 0.1 mm 3 m/s 469 mmHg 42%
    19:00 +10°C° 0.1 mm 2 m/s 468 mmHg 51%
    20:00 +10°C° 0.1 mm 1 m/s 468 mmHg 60%
    21:00 +8°C° 0 mm 2 m/s 468 mmHg 67%
    22:00 +8°C° 0 mm 2 m/s 468 mmHg 73%
    23:00 +7°C° 0 mm 2 m/s 468 mmHg 80%
    Mostrar mais